Retour au catalogue

COSMOS 1275 DEB

LostPO
NORAD 42163·DEBRIS·🇷🇺 Russia

Lancé Jun 4, 1981 depuis Plesetsk Cosmodrome

Loading…

Prochains Passages (prochaines 24 heures)

TLE

PériméSource: Space-Track

Époque: May 10, 2016, 02:07 UTC

1 42163U 81053SB  16131.08887377  .00000767  00000-0  82298-3 0  9995
2 42163  83.0075  56.0893 0118497  36.2466 326.4062 13.69448697465600

Suivez COSMOS 1275 DEB en temps réel avec AllMySat

Download on the App Store